User: anonymous   Login
Location: Unspecified
(0.0000°N, 0.0000°E)
Time: 10:18:46
(UTC+00:00)
Language:

ANTELSAT - Orbit

View from above orbital plane
View from above orbital plane
View from above satellite
View from above satellite

Ground track
Ground track

The orbit data is extracted from the following two-line orbital elements,

1 40034U 14033AA  17294.70607841  .00000333  00000-0  57330-4 0  9999
2 40034  97.8398 174.5933 0057640 245.5524 113.9665 14.73783562179552
Epoch (UTC): 21 October 2017 16:56:45
Eccentricity: 0.0057640
inclination: 97.8398°
perigee height: 608 km
apogee height: 689 km
right ascension of ascending node: 174.5933°
argument of perigee: 245.5524°
revolutions per day: 14.73783562
mean anomaly at epoch: 113.9665°
orbit number at epoch: 17955

The dashed part of the orbit path shows where the satellite is in the earth's shadow,  

DLR